Location: Ferintosh
(52.7647°N, 112.9692°W)
Time: 00:08:42
(UTC+00:00)

Vanguard 1 Rocket - Pass Details

Date: 19 May 2024
Orbit: 649 x 4221 km, 34.3° (Epoch: 13 June)

Event Time Altitude Azimuth Distance (km) Brightness Sun altitude
Rises 19:54:04 0° 249° (WSW) 6,662 12.0 56.9°
Reaches altitude 10° 20:00:09 10° 239° (WSW) 4,964 11.7 56.7°
Maximum altitude 20:09:27 25° 192° (SSW) 2,815 11.1 56.3°
Drops below altitude 10° 20:15:24 10° 140° (SE) 3,043 10.5 56.0°
Sets 20:18:05 0° 126° (SE) 3,680 10.6 55.9°
